Havre, MT

3:24 AM MDT on March 25, 2017 (GMT -0600)
Havre City-County

Weather History for KHVR - November, 2013

Change the Weather History Date:

Tuesday, November 12, 2013

  Actual Average Record
Temperature  
Mean Temperature 21 °F 32 °F  
Max Temperature 41 °F 43 °F 78 °F (1999)
Min Temperature 0 °F 20 °F -20 °F (1916)
Degree Days  
Heating Degree Days 44 33  
Month to date heating degree days 426 366  
Since 1 July heating degree days 1258 1365  
Cooling Degree Days 0 0  
Month to date cooling degree days 0 0  
Year to date cooling degree days 445 387  
Moisture  
Dew Point 8 °F    
Average Humidity 82    
Maximum Humidity 95    
Minimum Humidity 68    
Precipitation  
Precipitation T in 0.01 in 0.33 in (1930)
Month to date precipitation 0.28 0.18  
Year to date precipitation 17.75 10.55  
Snow  
Snow T in 0.20 in 3.60 in (1978)
Month to date snowfall 4.0 1.7  
Since 1 July snowfall 5.0 4.0  
Since 1 September snowfall 5.0 4.0  
Snow Depth 4.00 in    
Sea Level Pressure  
Sea Level Pressure 30.36 in    
Wind  
Wind Speed 6 mph (SW)    
Max Wind Speed 20 mph    
Max Gust Speed 24 mph    
Visibility 6 miles    
Events Fog    
T = Trace of Precipitation, MM = Missing Value Source: NWS Daily Summary

Daily Weather History Graph

Daily Weather History Graph

Search for Another Location

Airport or City:

Trip Planner

Search our weather history database for the weather conditions in past years. The results will help you decide how hot, cold, wet, or windy it might be!

Date:

Astronomy

Nov. 12, 2013 Rise Set
Actual Time 7:22 AM MST 4:42 PM MST
Civil Twilight 6:48 AM MST 5:16 PM MST
Nautical Twilight 6:10 AM MST 5:54 PM MST
Astronomical Twilight 5:34 AM MST 6:31 PM MST
Moon 2:19 PM MST (11/12) 1:52 AM MST (11/12)
Length of Visible Light 10h 28m
Length of Day
9h 19m
Waxing Gibbous, 77% of the Moon is Illuminated
Nov 12
Waxing Gibbous
Nov 17
Full
Nov 25
Last Quarter
Dec 2
New
Dec 9
First Quarter

Hourly Weather History & Observations

Time (MST) Temp. Windchill Dew Point Humidity Pressure Visibility Wind Dir Wind Speed Gust Speed Precip Events Conditions
12:17 AM 1.4 °F - -2.2 °F 85% 30.42 in 0.8 mi Calm Calm - N/A   Mist
12:42 AM 1.4 °F -6.2 °F -2.2 °F 85% 30.41 in 1.0 mi WSW 3.5 mph - N/A   Overcast
12:47 AM 1.4 °F - -2.2 °F 85% 30.41 in 2.0 mi Calm Calm - N/A   Overcast
12:53 AM 1.0 °F -6.7 °F -2.9 °F 83% 30.58 in 6.0 mi WSW 3.5 mph - N/A   Overcast
1:40 AM 1.4 °F - -0.4 °F 92% 30.40 in 1.5 mi Calm Calm - N/A   Overcast
1:45 AM 1.4 °F - -0.4 °F 92% 30.40 in 0.8 mi Calm Calm - N/A   Overcast
1:53 AM 1.9 °F - -0.0 °F 91% 30.56 in 0.5 mi Calm Calm - N/A Fog Light Freezing Fog
2:17 AM 1.4 °F - -0.4 °F 92% 30.39 in 0.2 mi Calm Calm - N/A Fog Light Freezing Fog
2:25 AM 1.4 °F - -0.4 °F 92% 30.38 in 0.5 mi Calm Calm - N/A Fog Light Freezing Fog
2:37 AM 3.2 °F - -0.4 °F 85% 30.38 in 0.2 mi Calm Calm - N/A Fog Light Freezing Fog
2:49 AM 3.2 °F - -0.4 °F 85% 30.37 in 0.5 mi Calm Calm - N/A Fog Light Freezing Fog
2:53 AM 3.0 °F - -0.0 °F 87% 30.53 in 0.5 mi Calm Calm - N/A Fog Light Freezing Fog
3:00 AM 3.2 °F - -0.4 °F 85% 30.38 in 0.2 mi Calm Calm - N/A Fog Light Freezing Fog
3:32 AM 3.2 °F -7.8 °F -0.4 °F 85% 30.37 in 0.5 mi WSW 5.8 mph - N/A Fog Light Freezing Fog
3:37 AM 1.4 °F -8.3 °F -0.4 °F 92% 30.37 in 1.5 mi WSW 4.6 mph - N/A   Overcast
3:45 AM 1.4 °F -8.3 °F -0.4 °F 92% 30.36 in 2.5 mi WSW 4.6 mph - N/A   Overcast
3:53 AM 1.9 °F -7.6 °F -0.0 °F 91% 30.52 in 2.0 mi SW 4.6 mph - N/A   Overcast
4:02 AM 1.4 °F -9.9 °F -0.4 °F 92% 30.36 in 1.5 mi SW 5.8 mph - N/A   Overcast
4:09 AM 1.4 °F -6.2 °F -0.4 °F 92% 30.35 in 1.2 mi SSW 3.5 mph - N/A   Overcast
4:27 AM 1.4 °F -6.2 °F -0.4 °F 92% 30.35 in 2.0 mi SW 3.5 mph - N/A   Overcast
4:35 AM 1.4 °F - -0.4 °F 92% 30.34 in 7.0 mi Calm Calm - N/A   Overcast
4:53 AM 1.9 °F - -2.9 °F 80% 30.49 in 10.0 mi Calm Calm - N/A   Overcast
5:53 AM 1.0 °F -8.7 °F -2.0 °F 87% 30.48 in 8.0 mi WSW 4.6 mph - 0.00 in   Overcast
6:53 AM 1.9 °F -7.6 °F -2.0 °F 83% 30.49 in 9.0 mi SW 4.6 mph - 0.00 in   Overcast
7:53 AM 3.0 °F - -0.0 °F 87% 30.48 in 10.0 mi Calm Calm - N/A   Overcast
8:18 AM 5.0 °F - 1.4 °F 85% 30.27 in 10.0 mi Calm Calm - N/A   Scattered Clouds
8:53 AM 6.1 °F - 1.9 °F 83% 30.45 in 10.0 mi Calm Calm - N/A   Clear
9:20 AM 6.8 °F - 5.0 °F 92% 30.27 in 10.0 mi Calm Calm - N/A   Scattered Clouds
9:29 AM 6.8 °F - 5.0 °F 92% 30.27 in 10.0 mi Calm Calm - N/A   Mostly Cloudy
9:53 AM 9.0 °F - 7.0 °F 92% 30.44 in 9.0 mi Calm Calm - N/A   Scattered Clouds
10:53 AM 15.1 °F - 10.9 °F 84% 30.40 in 10.0 mi Calm Calm - N/A   Clear
11:53 AM 19.0 °F - 12.9 °F 77% 30.37 in 10.0 mi Calm Calm - N/A   Clear
12:53 PM 21.9 °F - 15.1 °F 75% 30.33 in 10.0 mi Calm Calm - N/A   Clear
1:53 PM 26.1 °F - 17.1 °F 69% 30.29 in 10.0 mi Calm Calm - N/A   Clear
2:53 PM 24.1 °F 14.4 °F 18.0 °F 77% 30.28 in 10.0 mi SW 9.2 mph - N/A   Clear
3:53 PM 25.0 °F 16.3 °F 19.0 °F 78% 30.26 in 10.0 mi West 8.1 mph - N/A   Clear
4:53 PM 24.1 °F 13.7 °F 19.0 °F 81% 30.27 in 10.0 mi SW 10.4 mph - N/A   Clear
5:53 PM 30.0 °F 23.2 °F 24.1 °F 79% 30.23 in 10.0 mi West 6.9 mph - N/A   Clear
6:53 PM 28.9 °F 17.7 °F 23.0 °F 78% 30.22 in 10.0 mi SW 15.0 mph 24.2 mph N/A   Clear
7:53 PM 33.1 °F 23.9 °F 27.0 °F 78% 30.22 in 10.0 mi SW 12.7 mph - N/A   Partly Cloudy
8:53 PM 36.0 °F 28.0 °F 28.0 °F 73% 30.21 in 10.0 mi SW 11.5 mph - N/A   Scattered Clouds
9:53 PM 37.9 °F 30.0 °F 30.0 °F 73% 30.18 in 10.0 mi SSW 12.7 mph - N/A   Scattered Clouds
10:53 PM 39.0 °F 31.4 °F 30.9 °F 73% 30.17 in 10.0 mi WSW 12.7 mph - N/A   Clear
11:53 PM 39.9 °F 31.4 °F 32.0 °F 73% 30.17 in 10.0 mi SW 16.1 mph - N/A   Clear